Genoa/Cristoforo Colombo Airport

Airport
ICAO code: 
LIMJ
IATA Code: 
GOA
Summary
ICAO Region: 
EUR
Territory: 
Location: 
Sestri Ponente, Genoa, Liguria
Serving: 
Genoa
Elevation: 
13 ft
Coordinates: 
Aerial View: 
44° 24' 43.027" N, 8° 50' 46.802" E
Airport RE: 
Aquaplaning
Airport WX: 
Low Level Turbulence
Metar
Observation
LIMJ 190120Z 04014KT 8000 NSC 09/02 Q1032
Station
Genova / Sestri
Date/Time
2022-01-19 01:20:00
Wind direction
40°
Wind speed
14 kts
Lowest cloud amount
nil significant cloud
Temperature
9°C
Dew point
2°C
Humidity
61%
QNH
1032 hPa
Weather condition
n/a

International airport serving Italian port of Genova.

Climatology

Dry-summer subtropical ”Mediterranean" climate (Köppen climate classification Csa) - characterized by hot, dry summers and mild winters. During the summer, subtropical high pressure cells dominate, making rainfall unlikely except for the occasional thunderstorm. In the winter, periodic storms bring rain (snow at higher elevations).

Runways

Designator Length Width Surface Rops
11/29 2915 45 ASP Yes/Yes
Airport map: 
Aerial View: 

SKYbrary Partners:

Safety knowledge contributed by: